www.pogodaiklimat.ru
Время
и дата
05:53 04.10
06:53 04.10
07:53 04.10
08:53 04.10
09:53 04.10
10:53 04.10
11:53 04.10
12:53 04.10
13:53 04.10
14:53 04.10
15:53 04.10
16:53 04.10
17:53 04.10
18:53 04.10
19:53 04.10
20:53 04.10
21:53 04.10
22:53 04.10
23:53 04.10
00:53 05.10
01:53 05.10
02:53 05.10
03:53 05.10
04:53 05.10
05:53 05.10
06:53 05.10
07:53 05.10
08:53 05.10
09:53 05.10
10:53 05.10
11:53 05.10
12:53 05.10
13:53 05.10
14:53 05.10
15:53 05.10
16:53 05.10
17:53 05.10
18:53 05.10
19:53 05.10
20:53 05.10
21:53 05.10
22:53 05.10
23:53 05.10
00:53 06.10
01:53 06.10
02:53 06.10
03:53 06.10
04:53 06.10
Ветер
(напр.,м/с)
Видим. Явления Облачность Т
(С)
Тd
(С)
f
(%)
Тe
(С)
Тes
(С)
Комфортность P
(гПа)
Po
(гПа)
Тmin
(С)
Tmax
(С)
R
(мм)
R24
(мм)
S
(см)
штиль 0 16 км ясно +10.0 +5.6 74 +9 +9 1022.0 1000.2 +9.4 +13.9
СВ 3 16 км ясно +11.7 +6.1 68 +10 +10 1022.6 1000.9
С 2 16 км ясно +13.9 +5.6 57 +14 +14 1022.8 1000.9
СВ 2 16 км ясно +16.7 +6.1 50 +17 +20 1023.1 1001.2
СВ 2 16 км ясно +18.3 +6.7 47 +19 +26 1022.5 1000.9
нст 2 16 км ясно +21.1 +5.0 35 +22 +31 комфорт 1022.1 1000.2
С 3 16 км ясно +22.8 +3.9 29 +23 +33 комфорт 1021.4 999.6 +10.0 +22.8
нст 2 16 км ясно +23.9 +2.8 25 +23 +35 комфорт 1020.6 998.9
СВ 4 16 км ясно +23.9 +1.7 23 +23 +30 комфорт 1019.7 997.9
СВ 4 16 км ясно +25.0 +1.1 21 +24 +29 комфорт 1019.2 997.6
С 5 16 км ясно +24.4 0.0 20 +23 +26 комфорт 1019.1 997.6
СВ 4 16 км ясно +22.8 +2.2 26 +22 +24 комфорт 1019.3 997.6
СВ 2 16 км ясно +20.0 +1.7 30 +21 +21 комфорт 1019.7 997.9 +20.0 +25.6
СВ 2 16 км ясно +18.3 +2.8 36 +19 +19 1020.1 998.2
СВ 3 16 км ясно +16.1 +2.8 41 +16 +16 1020.3 998.6
С 2 16 км ясно +16.7 +2.2 38 +17 +17 1020.1 998.2
СВ 2 16 км ясно +15.0 +2.8 44 +15 +15 1020.5 998.9
штиль 0 16 км ясно +11.7 +3.9 59 +11 +11 1020.4 998.9
Ю 2 16 км ясно +10.6 +4.4 65 +9 +9 1020.1 998.6 +10.0 +20.0
Ю 2 16 км ясно +10.0 +5.0 71 +9 +9 1020.3 998.6
Ю 2 16 км ясно +8.9 +4.4 73 +7 +7 1020.0 998.2
штиль 0 16 км ясно +8.3 +4.4 76 +8 +8 1019.8 998.2
штиль 0 16 км ясно +8.3 +4.4 76 +8 +8 1019.9 998.2
нст 2 16 км ясно +7.2 +3.9 80 +5 +5 1020.3 998.6
Ю 2 16 км 2/0 7500 m
[Ci]
+7.2 +3.9 80 +5 +5 1021.0 999.2 +7.2 +10.6
штиль 0 16 км 2/0 7500 m
[Ci]
+9.4 +5.6 77 +9 +9 1021.5 999.6
штиль 0 16 км 2/0 7500 m
[Ci]
+15.0 +6.7 58 +15 +16 1021.9 999.9
штиль 0 16 км 2/0 7500 m
[Ci]
+18.9 +4.4 38 +19 +23 1021.7 999.9
нст 2 16 км 5/0 7500 m
[Ci]
+21.7 +0.6 25 +21 +27 комфорт 1021.7 999.9
штиль 0 16 км 5/0 7500 m
[Ci]
+23.3 0.0 21 +22 +34 комфорт 1021.3 999.6
нст 2 16 км 2/0 7500 m
[Ci]
+25.0 +0.6 20 +24 +35 комфорт 1020.6 998.9 +7.8 +25.0
В 3 16 км 2/0 7500 m
[Ci]
+25.6 +1.7 21 +24 +34 комфорт 1019.7 997.9
нст 2 16 км 2/0 7500 m
[Ci]
+26.7 +0.6 18 +25 +35 комфорт 1018.9 997.3
нст 2 16 км 2/0 7500 m
[Ci]
+26.1 +1.1 20 +25 +32 комфорт 1018.5 996.9
С 3 16 км 5/0 7500 m
[Ci]
+26.1 +0.6 19 +24 +28 комфорт 1018.3 996.6
СЗ 3 16 км 5/0 7500 m
[Ci]
+25.0 -1.7 17 +23 +25 комфорт 1018.5 996.9
С 3 16 км 5/0 7500 m
[Ci]
+22.8 -1.1 20 +22 +22 комфорт 1018.8 996.9 +22.8 +27.2
штиль 0 16 км 2/0 7500 m
[Ci]
+19.4 +0.6 28 +19 +19 1018.9 997.3
штиль 0 16 км ясно +17.2 +1.7 35 +17 +17 1019.1 997.3
Ю 2 16 км ясно +13.9 +3.3 49 +14 +14 1019.5 997.9
Ю 2 16 км ясно +13.3 +4.4 55 +13 +13 1019.3 997.6
Ю 2 16 км ясно +12.2 +5.0 61 +11 +11 1019.6 997.9
Ю 2 16 км ясно +11.1 +5.0 66 +10 +10 1019.3 997.6 +11.1 +22.8
Ю 2 16 км ясно +10.6 +5.0 68 +9 +9 1019.4 997.6
штиль 0 16 км 2/0 6000 m
[Ac]
+10.6 +5.0 68 +10 +10 1019.3 997.6
штиль 0 16 км ясно +9.4 +4.4 71 +9 +9 1018.9 997.3
Ю 2 16 км 5/0 6000 m
[Ac]
+8.9 +5.0 77 +7 +7 1019.0 997.3
Ю 2 16 км 5/0 6000 m
[Ac]
+8.3 +4.4 76 +7 +7 1019.1 997.6
Местоположение метеостанции Nashville International Airport: широта 36.1189 долгота -86.6892 высота над уровнем моря 183 м.
В архиве по умолчанию представлена погода в Нэшвилле за последние 1-2 суток. Обновление информации о фактической погоде в базе происходит ежечасно! Архивные данные за месяц целиком и за предыдущие месяцы Вы можете получить, выбрав интересующий диапазон дат из раскрывающегося списка и нажав кнопку "Ввод!".
Внимание! Архив погоды МЕТАР в базе сайта по станциям, не включенным в климатический монитор, хранится не более 60 дней. Нет смысла пытаться выбрать более раннюю дату.
*Определитесь, кто Вы:
Внимание! Время в таблицах - местное (без учета летнего времени). Для получения всемирного времени необходимо вычесть поправку, которая равна -6 ч.
Смотрите также архив погоды в соседних городах и на ближайших метеорологических станциях:
Партнеры нашего сайта:      
Пояснения к столбцам:
  • Ветер - указаны скорость ветра в м/с - средняя за 10 мин, порывы в срок и между сроками (в фигурных скобках) и направление, откуда дует ветер: С - северный,
  • СВ - северо-восточный, В - восточный, ЮВ - юго-восточный, Ю - южный, ЮЗ - юго-западный, З - западный, СЗ - северо-западный.
  • Видимость - горизонтальная дальность видимости в метрах или километрах. При видимости от 1 до 10 км при отсутствии осадков обычно наблюдается дымка, при ухудшении видимости до 1 км и менее - туман. В сухую погоду видимость может ухудшаться дымом, пылью или мглою.
  • Явления - указаны атмосферные явления, наблюдавшиеся в срок или в последний час перед сроком; фигурными скобками обозначены явления, наблюдавшиеся между сроками (за 1-3 часа до срока); квадратными скобками обозначены град или гололедные отложения с указанием их диаметра в мм.
  • Облачность - указаны через наклонную черту общая и нижняя облачность в баллах и высота нижней границы облаков в метрах; квадратными скобками обозначены формы облаков: Ci - перистые, Cs - перисто-слоистые, Cc - перисто-кучевые, Ac - высококучевые, As - высокослоистые, Sc - слоисто-кучевые, Ns - слоисто-дождевые, Cu - кучевые, Cb - кучево-дождевые. Подробнее классификацию облаков см. в Атласе облаков (PDF).
  • T - Температура воздуха - температура, измеренная на высоте 2 м над землей.
  • Td - Температура точки росы - температура, при понижении до которой содержащийся в воздухе водяной пар достигнет насыщения.
  • f - Относительная влажность воздуха - влажноcть воздуха, измеренная на высоте 2 м над землей.
  • Te - Эффективная температура - температура, которую ощущает одетый по сезону человек в тени. Характеристика душности погоды. При расчете учитывается влияние влажности воздуха и скорости ветра на теплоощущения человека.
  • Tes - Эффективная температура на солнце - температура, которую ощущает человек, с поправкой на солнечный нагрев. Характеристика знойности погоды. Зависит от высоты солнца над горизонтом, облачности и скорости ветра. Ночью, в пасмурную погоду, а также при ветре 12 м/с и более поправка равна нулю.
  • P - Атмосферное давление - приведенное к уровню моря атмосферное давление.
  • Po - Атмосферное давление - измеренное на уровне метеостанции атмосферное давление.
  • Tmin - Минимальная температура - минимум температуры воздуха на высоте 2 м над землей.
  • Tmax - Максимальная температура - максимум температуры воздуха на высоте 2 м над землей.
  • R - Количество осадков - Количество выпавших осадков за период времени, мм. При наведении курсора мыши на число - период времени, за который выпало указанное количество осадков.
  • R24 - Количество осадков - Количество выпавших осадков за 24 часа, мм.
  • S - Снежный покров - Высота снежного покрова, см. При наведении курсора мыши на число - состояние снежного покрова и степень покрытия местности в баллах.